Location: Arbon
(43.0005°N, 0.7472°E)
Time: 09:03:03
(UTC+00:00)

Vanguard 2 Rocket - Pass Details

Date: 04 December 2020
Orbit: 554 x 3326 km, 32.9° (Epoch: 28 January)

Event Time Altitude Azimuth Distance (km) Brightness Sun altitude
Rises 05:39:19 0° 226° (SW) 6,267 10.9 -16.4°
Reaches altitude 10° 05:43:17 10° 221° (SW) 5,549 10.6 -15.7°
Maximum altitude 06:00:07 47° 154° (SSE) 3,974 10.4 -12.8°
Drops below altitude 10° 06:18:14 10° 89° (E) 5,966 12.3 -9.7°
Sets 06:22:40 0° 85° (E) 6,754 12.6 -8.9°
